Location: Koslow
(50.3020°N, 18.5663°E)
Time: 23:02:16
(UTC+00:00)

GEOS 3 Rocket - Pass Details

Date: 07 June 2020
Orbit: 772 x 847 km, 115.0° (Epoch: 05 July)

Event Time Altitude Azimuth Distance (km) Brightness Sun altitude
Rises 00:10:38 0° 128° (SE) 3,306 6.6 -14.5°
Reaches altitude 10° 00:12:54 10° 127° (SE) 2,389 5.9 -14.4°
Maximum altitude 00:18:04 73° 44° (NE) 863 3.9 -14.0°
Drops below altitude 10° 00:23:22 10° 321° (NW) 2,448 6.5 -13.7°
Sets 00:25:43 0° 319° (NW) 3,394 7.2 -13.6°
